Tracking 31027 objects as of 19-Jul-2025
HD Live streaming from Space Station
objects crossing your sky now

TITAN 3C TRANSTAGE DEB

Track TITAN 3C TRANSTAGE DEB now!
10-day predictions


NORAD ID: 1833
Int'l Code: 1965-082DY
Perigee: 620.1 km
Apogee: 708.2 km
Inclination: 32.2 °
Period: 97.9 minutes
Semi major axis: 7035 km
RCS: 0.1109 m2 (medium)
Launch date: October 15, 1965
Source: United States (US)
Launch site: AIR FORCE EASTERN TEST RANGE (AFETR)

Note: This is SATELLITE DEBRIS
Your satellite tracking list
STARLINK-31009
Track 1 satellite(s)




NASA's NSSDC Master Catalog

Two Line Element Set (TLE):
1 01833U 65082DY  25199.62845859  .00002310  00000-0  35015-3 0  9992
2 01833  32.2282  47.9943 0062664 319.2512  40.3462 14.71271118120734
Source of the keplerian elements: AFSPC